Weather History for KPSC - October, 2012

Change the Weather History Date:

Monday, October 15, 2012

  Actual Average Record
Temperature  
Mean Temperature 67 °F 52 °F  
Max Temperature 75 °F 66 °F 81 °F (1963)
Min Temperature 59 °F 38 °F 28 °F (2008)
Degree Days  
Heating Degree Days 0 13  
Month to date heating degree days 141 153  
Since 1 July heating degree days 197 264  
Cooling Degree Days 2 0  
Month to date cooling degree days 2 0  
Year to date cooling degree days 788 709  
Growing Degree Days 16 (Base 50)    
Moisture  
Dew Point 57 °F    
Average Humidity 73    
Maximum Humidity 93    
Minimum Humidity 53    
Precipitation  
Precipitation 0.15 in 0.02 in 0.27 in (2006)
Month to date precipitation 0.39 0.33  
Year to date precipitation 6.80 6.21  
Snow  
Snow 0.00 in - - ()
Snow Depth 0.00 in    
Sea Level Pressure  
Sea Level Pressure 29.82 in    
Wind  
Wind Speed 10 mph (SSW)    
Max Wind Speed 23 mph    
Max Gust Speed 29 mph    
Visibility 10 miles    
Events Rain    
T = Trace of Precipitation, MM = Missing Value Source: NWS Daily Summary

Daily Weather History Graph

Daily Weather History Graph

Search for Another Location

Airport or City:

Trip Planner

Search our weather history database for the weather conditions in past years. The results will help you decide how hot, cold, wet, or windy it might be!

Date:

Astronomy

Oct. 15, 2012 Rise Set
Actual Time 7:14 AM PDT 6:08 PM PDT
Civil Twilight 6:44 AM PDT 6:39 PM PDT
Nautical Twilight 6:09 AM PDT 7:14 PM PDT
Astronomical Twilight 5:34 AM PDT 7:48 PM PDT
Moon 7:34 AM PDT (10/15) 6:06 PM PDT (10/15)
Length of Visible Light 11h 55m
Length of Day
10h 54m
New Moon, 0% of the Moon is Illuminated
Oct 15
New Moon
Oct 21
First Quarter
Oct 29
Full
Nov 6
Last Quarter
Nov 13
New

Hourly Weather History & Observations

Time (PDT) Temp. Dew Point Humidity Pressure Visibility Wind Dir Wind Speed Gust Speed Precip Events Conditions
12:53 AM 59.0 °F 57.0 °F 93% 29.93 in 10.0 mi SE 11.5 mph - 0.03 in Rain Light Rain
1:53 AM 59.0 °F 57.0 °F 93% 29.92 in 10.0 mi Calm Calm - 0.00 in   Overcast
2:53 AM 61.0 °F 55.9 °F 83% 29.91 in 10.0 mi South 6.9 mph - 0.00 in   Overcast
3:53 AM 60.1 °F 55.9 °F 86% 29.90 in 10.0 mi South 6.9 mph - 0.01 in   Overcast
4:53 AM 61.0 °F 55.0 °F 81% 29.87 in 10.0 mi Variable 4.6 mph - N/A   Overcast
5:53 AM 60.1 °F 54.0 °F 80% 29.89 in 10.0 mi SW 13.8 mph - N/A   Overcast
6:53 AM 61.0 °F 54.0 °F 78% 29.89 in 10.0 mi South 13.8 mph - N/A   Overcast
7:53 AM 60.1 °F 54.0 °F 80% 29.91 in 10.0 mi SW 10.4 mph - N/A   Partly Cloudy
8:53 AM 63.0 °F 54.0 °F 72% 29.93 in 10.0 mi WSW 18.4 mph 24.2 mph N/A   Scattered Clouds
9:53 AM 66.9 °F 55.0 °F 66% 29.91 in 10.0 mi WSW 16.1 mph 21.9 mph N/A   Clear
10:53 AM 69.1 °F 55.0 °F 61% 29.91 in 10.0 mi WSW 19.6 mph - N/A   Clear
11:53 AM 72.0 °F 55.0 °F 55% 29.90 in 10.0 mi SW 17.3 mph - N/A   Clear
12:53 PM 72.0 °F 54.0 °F 53% 29.88 in 10.0 mi SW 17.3 mph 25.3 mph N/A   Clear
1:53 PM 72.0 °F 54.0 °F 53% 29.85 in 10.0 mi SSW 13.8 mph - N/A   Clear
2:53 PM 72.0 °F 54.0 °F 53% 29.82 in 10.0 mi SW 11.5 mph - N/A   Clear
3:53 PM 71.1 °F 55.0 °F 57% 29.79 in 10.0 mi SSW 4.6 mph - 0.00 in Rain Light Rain
4:53 PM 64.9 °F 60.1 °F 84% 29.77 in 6.0 mi SE 6.9 mph - 0.05 in Rain Rain
5:53 PM 64.0 °F 60.1 °F 87% 29.75 in 8.0 mi ESE 4.6 mph - 0.05 in Rain Rain
6:53 PM 63.0 °F 60.1 °F 90% 29.70 in 10.0 mi East 5.8 mph - 0.03 in Rain Light Rain
7:53 PM 62.1 °F 60.1 °F 93% 29.68 in 10.0 mi East 5.8 mph - 0.00 in   Scattered Clouds
8:53 PM 63.0 °F 60.1 °F 90% 29.65 in 10.0 mi SSE 9.2 mph - 0.00 in Rain Light Rain
9:53 PM 66.9 °F 59.0 °F 76% 29.63 in 10.0 mi South 6.9 mph - 0.00 in   Overcast
10:53 PM 66.0 °F 60.1 °F 81% 29.62 in 10.0 mi SW 9.2 mph - 0.01 in   Mostly Cloudy
11:53 PM 66.9 °F 60.1 °F 79% 29.60 in 10.0 mi SW 8.1 mph 19.6 mph N/A   Overcast